Mitgliederbereich
Imprimable
Challenges > Delhalle - Louette St Pierre, 25/07/2015, BEL - L'Ardennaise
Liste der Berichte > Trail 35 km - Classement à l'arrivée
Suche: Seite: [1]
266 Eingaben
 
Les réclamations ne sont plus acceptées, les résultats sont considérés comme définitifs.
Kategorie
PosNrNameAgeNATLigaMannschaftRealZeitTkmMoy.PlatzNameStadt
1.6796WATERVAL CLAUDE34BEL2:31:092:31:094:20 13.891senFOREST
2.6538CAPELLE CHRISTIAN48BELRCBRCB2:37:142:37:144:30 13.361ve1DURNAL
3.6660LE ROUX MATTHIEU31FRATEAM RAIDLIGHT2:37:172:37:174:30 13.352senNEUFLIZE
4.6491DE ZUTTER BASTIEN36BELCEPAL2:38:592:38:594:33 13.213senFOREST
5.6506ALEXANDRE JOSE49FRAUSCN2:39:132:39:164:34 13.192ve108140
6.6537CAMUS RENAUD36FRAUSCN2:39:482:39:514:35 13.144senVILLERS SEMEUSE
7.6514BAUDOIN PHILIPPE45BELARCH2:45:512:45:514:45 12.663ve1MIÉCRET
8.6492ETIENNE FABRICE46BELARCHRC NAMUR2:47:032:47:034:47 12.574ve1
9.6582DE WITTE RODNEY37BEL2:51:142:51:194:54 12.265senRONSE
10.6737STEENWEGEN LOWIE52BELRCT2:51:392:51:434:55 12.231ve2GLABBEEK
11.6600FRANCOIS BENOÎT39BELTHÉODOTEMPO2:55:092:55:125:01 11.996senNEUFVILLES
12.6623HANSEN NICOLAS24BELRCNAMU2:56:012:56:035:02 11.937senSPY
13.6726SCHACHT WIM47BEL2:56:252:56:305:03 11.905ve1GENT
14.6507AMEELE WIM32BEL2:56:442:56:475:04 11.888senKESSEL-LO
15.6690MOTCH RAPHAËL45BEL2:57:052:57:065:04 11.866ve1TINTIGNY
16.6792GILLARD JULIEN30BEL2:57:212:57:255:05 11.849sen
17.6594EMAER JÉRÔME33BELCOACH RUNNING2:58:042:58:105:06 11.7910senCALLENELLE
18.6739STOCKMANS FRANÇOIS49BELRCB2:58:082:58:115:06 11.797ve1BRUXELLES
19.6673MAILLEUX THIERRY41BELKROEPOEK TEAM3:00:413:00:485:10 11.628ve1MARCHE-EN-FAMENNE
20.6795DELDEBES FABIEN47BELCAP BEAURAING3:01:283:01:285:12 11.579ve1
21.6664LIEOU THANH50FRAACHERBOURG MARA3:01:533:01:565:12 11.542ve2EUEURDREVILLE
22.6681MASSON JEAN33FRALES VIROQUOIS3:02:373:02:405:14 11.5011senVIREUX MOLHAIN
23.6584DIANCOURT MICKAEL45FRAGRAC3:03:133:03:205:15 11.4510ve1LAVAL MORENCY
24.6781BONOMI NICOLAS32BEL3:03:573:03:585:16 11.4212senNAMUR
25.6793AUDRAN FREDERIC42FRALES VIR3:04:083:04:115:16 11.4011ve1
26.6547COMPÈRE THOMAS43BELRCB3:03:503:04:115:16 11.4012ve1BRUXELLES
27.6786DEPAUW EMMANUEL48BEL3:04:123:04:155:16 11.4013ve1
28.6575DEPAUW EMMANUEL48BELCAPTEAM3:04:233:04:245:17 11.3914ve1TOURNAI
29.6767WINTEIN JOHAN35BELRFCL3:05:103:05:105:18 11.3413senSERAING
30.6733SCOLLO VALERIO31ITATRILUX3:05:103:05:105:18 11.3414senLUXEMBOURG
31.6513BASTENDORFF CLAUDE38LUXCAPA3:05:103:05:105:18 11.3415senDIEKIRCH
32.6753VAN WETTER RENAUD44BELCEPAL3:05:103:05:105:18 11.3415ve1BRUXELLES
33.6725SAVOIR PATRICK54BEL3:05:113:05:115:18 11.343ve2DILBEEK
34.6531BRUNNMEIER WOLFRAM62DEU3:05:083:05:215:18 11.331ve3MÜLHEIM/RUHR
35.6572DENIS BERNARD40BEL3:05:273:05:305:18 11.3216ve1MARBAY
36.6727SCHEERS FILIP46BEL3:06:093:06:145:20 11.2817ve1TERVUREN
37.6665LION CEDRIC43FRA3:06:243:06:255:20 11.2718ve1HARGNIES
38.6763VISSE STEPHANE48FRALES VIROQUOIS3:06:243:06:265:20 11.2619ve1RANCENNES
39.6527BOUDSOCQ STEPHANE39FRAGRAC3:07:293:07:375:22 11.1916senTHILAY
40.6755VANWYNSBERGHE GAETAN26BELCSDYLETEAMNEWCONCEPTS3:08:013:08:015:23 11.1717senWALHAIN
41.6705PAULY ALAIN43BEL3:09:153:09:195:25 11.0920ve1SAINT-SERVAIS
42.6789PLASMANNE MAXIME35BEL3:09:333:09:345:25 11.0818senLASNE
43.6614GODEFROID EMMANUEL39BEL3:09:413:10:025:26 11.0519senROCHEFORT
44.6769ZAGLANICZNY DOMINIK36POLKAFAREK I LEWAR3:10:073:10:115:27 11.0420senPRUSZCZ GDANSKI
45.6500SNOECK DIDIER45BELCEPAL3:10:023:10:195:27 11.0321ve1
46.6541CERCKEL PIERRE49BELUSBW3:10:303:10:365:27 11.0222ve1WATERLOO
47.6783PALFI JANOS38HUN3:10:473:10:485:28 11.0121senWATERLOO
48.6612GIVRON REGIS25BEL3:11:053:11:075:28 10.9922senCHARLEROI
49.6604GARNETT RICHARD60GBRFURALOPERS3:11:213:11:275:29 10.972ve3TERVUREN
50.6610GILLET DAVID43BEL3:11:323:11:365:29 10.9623ve1MEIX-DEVANT-VIRTON
51.6679MARTINAUX JEAN-CHARLES40BEL3:11:563:12:175:30 10.9224ve15330
52.6628HENROT FRED42BEL3:12:013:12:175:30 10.9225ve1ASSESSE
53.6518BERTHE BENOÎT29BEL3:13:133:13:145:32 10.8723senCHAUMONT-GISTOUX
54.6787RICHARD FRÉDÉRIC42BEL3:13:193:13:205:32 10.8626ve1HERBEUMONT
55.6483DELIENS MATHIEU30BEL3:13:063:13:215:32 10.8624sen
56.6624HARPIGNY CEDRIC39BEL3:13:293:13:335:32 10.8525senOBOURG
57.6544CHEVALIER FABIAN33BELLES MOTIVES DE 3:13:413:13:455:33 10.8426senBIOUL
58.6791SCHOONACKERS HANS46BEL3:13:363:13:565:33 10.8327ve1ADEGEM
59.6606GAUSSET OLIVIER48BELAXA TEAM3:14:263:14:305:34 10.8028ve1BRUXELLES
60.6489CASTILLO MICHEL43FRA3:14:473:14:595:35 10.7729ve1
61.6773DESSOY HAROLD44BEL3:15:233:15:275:36 10.7430ve1
62.6766WAUTERS DIRK40BEL3:15:543:16:045:37 10.7131ve1MOERBEKE
63.6609FGERARDIN BÉATRICE45FRACMACHIMAY TRAIL AV3:16:203:16:265:37 10.691ai1CHARLEVILLE-MÉZIÈRE
64.6770ZAGLANICZNY MICHAL38POLKAFAREK I LEWAR3:17:033:17:075:38 10.6527senSCHENGEN
65.6493DEHOUX PAUL46BELTEAM ILW3:17:083:17:095:38 10.6532ve1
66.6797FHAULAIT SANDRA34BELCEPAL3:17:213:17:385:39 10.631damWATERMEAL-BOITSFORT
67.6768ZACARIAS LAURENT50FRAUSCN3:14:083:17:555:40 10.614ve2VRIGNE AUX BOIS
68.6653LECOMTE FLORENT37FRAUSCN3:18:103:18:225:41 10.5928senFLIZE
69.6758VERHOEVEN KRIS35BEL3:18:333:18:405:41 10.5729senVOSSEM
70.6666LISABETH XAVIER39BELGENTLOOPT.BE3:18:373:18:425:41 10.5730senSINT-AMANDSBERG
71.6640JOSSE BERTRAND33BELTRAIL DE LA LES3:18:343:18:435:41 10.5731senFLORIFFOUX
72.6760FVERSCHUERE PATRICIA47BELRIEM3:18:453:18:565:42 10.562ai1EEKLO
73.6644KURZ XAVIER57BEL3:18:533:19:085:42 10.555ve2LIÈGE
74.6611GILLET YANNICK45FRA3:19:273:19:375:43 10.5233ve1HOULDIZY
75.6618GREGOIRE ETIENNE46BEL3:20:363:20:465:45 10.4634ve1VEDRIN
76.6701DELAIT OLIVIER48BELBATIFER TRIATHL3:20:503:21:005:45 10.4535ve1BRAS-HAUT
77.6676MARBAIX DIDIER49BELMADRES3:21:073:21:185:46 10.4336ve1HERCHIES
78.6734'S HEEREN PAUL-HENRI44BEL3:21:143:21:235:46 10.4337ve1GENT
79.6754VANWYNSBERGHE BERNARD55BEL3:21:203:21:255:46 10.436ve2WALHAIN
80.6581DEWEZ MICHAEL35BELJET3:21:503:21:595:47 10.4032senOPHAIN
81.6486DUBOIS BERTRAND38BELPARNASS3:23:293:23:345:49 10.3233sen
82.6496ALBERT JEAN FRANCOIS36BEL3:23:253:23:385:50 10.3134sen
83.6688MONIOTTE GABRIEL45BELRC NAMUR3:23:593:24:005:50 10.2938ve1BONINNE
84.6689MONIOTTE GILLES-ANTOINE45BEL3:24:053:24:055:50 10.2939ve1VEDRIN
85.6757VENOT PIERRE39FRA3:24:003:24:055:50 10.2935senRIXENSART
86.6785MARTIN MICHEL53FRAFFAFJEP APPIGNY3:24:223:24:245:51 10.277ve2
87.6587DOBBELAERE MATTHIAS36BEL3:24:063:24:275:51 10.2736senAFFLIGEM
88.6713POIDEVIN MAXIME26FRA3:24:483:24:565:52 10.2537senSTRASBOURG
89.6629HENRY VINCENT40BEL3:25:293:25:405:53 10.2140ve1CORTIL-NOIRMONT
90.6774CATINUS YOURI26BEL3:25:313:25:455:53 10.2138sen
91.6780LAURENT FREDERIC48BELCEPAL3:25:313:25:495:53 10.2041ve1
92.6667LOICQ ADRIEN31BEL3:26:023:26:265:54 10.1739senROSELIES
93.6487DASSESSE THIBAUT40BEL3:26:353:26:385:55 10.1642ve1
94.6731SCHNEIDER ROLAND49LUXCAPA3:27:273:27:365:56 10.1243ve1ESCHDORF
95.6669LUCAS ROMUALD42BEL3:27:223:27:385:56 10.1144ve1THIEUSIES
96.6762VISSE LUDOVIC27FRALES VIROQUOIS3:27:493:27:515:57 10.1040senRANCENNES
97.6569DENDAL DIDIER52BEL3:27:523:27:535:57 10.108ve2LIÈGE
98.6499VANHONACKER GAUTHIER37BELETE/TGV3:27:473:28:035:57 10.0941sen
99.6549COUVREUR DIDIER54BELBRUMBIES3:28:093:28:155:57 10.089ve2BONLEZ
100.6699NOBEN BERTRAND34BEL3:28:093:28:235:58 10.0842senLOUETTE-SAINT-DENIS
101.6746VANDEPOELE DAMIEN51BELGAG GEGAG GEMBLOUX3:28:593:29:115:59 10.0410ve2SPY
102.6488DE PRIL JORN33BEL3:29:143:29:276:00 10.0343senETIKHOVE
103.6720ROSILLON DOMINIQUE58BELARCH3:30:123:30:246:01 9.9811ve2SORÉE
104.6519BINARD MARC59BELMIEL MAYA HONIN3:30:143:30:306:01 9.9812ve2ANGLEUR
105.6574DENONCIN THIERRY56BEL3:31:213:31:316:03 9.9313ve2BOUILLON
106.6740TASSIN JEROME41FRAFFAUSCN-ATHLE3:31:203:31:336:03 9.9345ve1FLIZE
107.6714POT GERARD57FRAMYSTERE3:31:443:31:506:04 9.9114ve2WAVRE
108.6598FAVEYTS JEAN-MARC54BEL3:32:193:32:266:05 9.8915ve2MILMORT
109.6554FDANCETTE ELODIE27BEL3:32:303:32:306:05 9.882damEVERE
110.6698FNICOLAS CÉLINE41BEL3:32:523:32:576:06 9.863ai1SAINT-HUBERT
111.6578FDE SCHRIJVER MARIE36BEL3:33:063:33:246:06 9.843dam1190
112.6526BOUCHEZ YANNICK36BELMADRES3:33:383:33:506:07 9.8244senWIERS
113.6534BULTIJNCK IGNACE35BELWILD BOARS3:33:443:34:056:07 9.8145senMUIZEN
114.6520BINKERT MARC54CHELDLV3:34:103:34:186:08 9.8016ve2GANSHOREN
115.6490LAURENT DENIS49FRA3:34:333:34:396:08 9.7846ve1
116.6617GORGEMANS LAURENT45BEL3:34:373:34:426:09 9.7847ve1NOBRESSART
117.6738FSTEVENS ILSE38BELALVA3:35:093:35:236:10 9.754damAALST
118.6615GOFFE NICOLAS31BEL3:35:343:35:356:10 9.7446senOPHAIN
119.6495GOFFLUT FREDERIC45BELTRÉVIRE TRAIL C3:35:383:35:466:10 9.7348ve1
120.6721RUBAY RAPHAEL44BEL3:36:173:36:286:12 9.7049ve1DAVE
121.6630HERZL PIERRE-YVES48BELCEPAL3:36:243:36:386:12 9.6950ve1BRUXELLES
122.6736SPELLANZON MICHAEL44BELFRT BINCHE3:37:073:37:136:13 9.6751ve1BINCHE
123.6759VERMEERE DIDIER45BELJ.E.T.J.E.T.3:36:473:37:146:13 9.6752ve1BRAINE-LE-COMTE
124.6510ANTOINE LUC38BEL3:36:493:37:166:13 9.6747senREBECQ
125.6627HENRICHMANN OLIVER50DEU3:36:583:37:186:13 9.6617ve2SAINT NICOLAS
126.6563DEHOVE LUC41BEL3:37:273:37:316:13 9.6553ve1EVERE
127.6551CRETELEINE ROLAND54BELLES MOTIVÉS DEM3:38:263:38:296:15 9.6118ve2FLORENNES
128.6719FROBERTI DAPHNÉ39BELRCNAMUR3:38:253:38:296:15 9.615damSTAVE (METTET)
129.6722SAELMACKERS MICHEL58BELMOTIVÉS DE METT3:38:263:38:306:15 9.6119ve2BIESME
130.6776BIASINO FABRICE38BEL3:38:053:38:316:15 9.6148senBRUXELLES
131.6583DE WOUTERS FRÉDÉRIC43BEL3:38:143:38:316:15 9.6154ve1SAINT-GILLES
132.6756VASSANT DOMINIQUE53FRAGRACGRAC3:38:233:38:386:15 9.6120ve2NOUZONVILLE
133.6784FMAYER STEPHANIE38DEUSHELTON STRIDER3:38:263:38:446:15 9.606dam
134.6651LÉCHEVIN ARNAUD19BEL3:38:333:38:516:16 9.601espTHIEULAIN
135.6501ABRAHAM CHRISTOPHE40BELARCH3:39:083:39:206:16 9.5855ve1CINEY
136.6484MARSIN GAETAN40BELRCBMYSTERE3:39:063:39:296:17 9.5756ve1UCCLE
137.6686MICHIELS ALEX51BELLOS3AMIGOS3:39:373:39:556:17 9.5521ve2BRUGGE
138.6497NOBEL REMY47FRAROUVROY ACTION 3:39:513:39:586:18 9.5557ve1
139.6794LECLERC LAURENT47FRA3:40:323:40:336:19 9.5258ve1
140.6535CALAY CHRISTOPHE44BELRCBGRAIDE3:40:243:40:466:19 9.5159ve1HAUT-FAYS
141.6775BODAUX PIERRE61BEL3:40:413:40:466:19 9.513ve3
142.6798VANBENEDEN KRISTOF42BEL3:41:203:41:296:20 9.4860ve1DUISBURG
143.6494FDETREY RAPHAELE41FRAPSA CITROËN3:41:303:41:386:20 9.484ai1CHARLEVILLE MEZIERES
144.6570DENEFFE PHILIPPE54BELJC HOUYET - J.C3:41:303:41:436:21 9.4722ve2HOUYET
145.6635JACOBS FRANÇOIS-DOMINIQUE55BEL3:41:263:41:436:21 9.4723ve2OTTIGNIES
146.6765WAROUX PATRICK52BELE.T.CHIEVRES3:41:283:41:446:21 9.4724ve2CASTEAU
147.6680MARTIN PHILIPPE55BELRUNPRO3:41:373:41:466:21 9.4725ve2WÉPION
148.6693FMURAKAMI YUKI43JPN3:41:283:41:466:21 9.475ai1AUDERGHEM
149.6533BULTEL PATRICK52FRA3:41:313:41:476:21 9.4726ve2CHARLEVILLE MEZIERES
150.6568DELPEUT PHILIPPE57FRAK-RAID3:41:413:41:506:21 9.4727ve2BOGNY SUR MEUSE
151.6677MARCHAND YVES50BELVERTIGO3:41:563:42:096:21 9.4528ve2LENS
152.6576DEPOORTER FREDERIC41FRA3:42:223:42:316:22 9.4461ve1DAVERDISSE
153.6779REVILLON SEBASTIEN34BELFLEURUS3:42:323:42:346:22 9.4449sen
154.6712PLONGEON JEAN-FRANÇOIS37FRA3:42:343:42:406:22 9.4350senHEVILLERS
155.6539CARRON TOM41BEL3:42:513:43:046:23 9.4162ve1RIJMENAM
156.6687FMOHIMONT NATHALIE46BELRCNAMUR3:44:443:45:016:26 9.336ai1COURRIÈRE
157.6588DUCHÊNE MATTHIEU33BELCARACOTRAILER3:45:363:45:496:28 9.3051senPROFONDEVILLE
158.6637FJACOBY YASMINE35LUX3:46:033:46:106:28 9.297damBETTEMBOURG
159.6729SCHINCKUS GERALD45BEL3:46:503:46:586:30 9.2563ve1BOUGE
160.6744VALENTE BRUNO43FRAK-RAID3:46:543:47:036:30 9.2564ve1BOGNY SUR MEUSE
161.6591DUPLAIX ERIC51FRA3:47:293:47:456:31 9.2229ve208700
162.6548COQU RICHARD48BEL3:47:423:48:046:31 9.2165ve1VITRIVAL
163.6674FMALACORT DELPHINE29BELJCHSHWALCOURSE3:48:283:48:366:32 9.198dam5651
164.6485LOMBAERT SEBASTIEN40BELRCB3:50:113:50:326:36 9.1166ve1
165.6777GAILLARD JEAN-PIERRE54BEL3:50:333:50:556:36 9.0930ve2
166.6586FDION BERNADETTE52BELRCBG3:50:473:51:096:37 9.091ai2VRESSE/SUR/SEMOIS
167.6778PROUTEAU GUY55FRA3:51:063:51:136:37 9.0831ve2
168.6621HANNARD KEVIN32BEL3:51:103:51:216:37 9.0852senAUVELAIS
169.6790NR 679041BELRCB3:51:123:51:356:37 9.0767ve1
170.6502ABRY GUY41BEL3:51:253:51:416:38 9.0668ve1DEURNE
171.6750VAN LOY JAN35BEL3:51:413:51:426:38 9.0653senOLEN
172.6626HELSEN PETER41BELLEF(FE)GOZERS3:51:413:51:436:38 9.0669ve1ANTWERPEN
173.6622HANSEN JEAN-MARIE57BELRCNAMUR3:51:503:51:566:38 9.0532ve2SPY
174.6555DARDENNE ROBIN26BEL3:52:133:52:316:39 9.0354senROCHEFORT
175.6561DEGLIM JULIEN32BEL3:52:163:52:336:39 9.0355senOHEY
176.6532BUFFET YANNICK49BEL3:52:383:52:526:40 9.0270ve1PERUWELZ
177.6748VAN DE WAL LUC62BEL3:52:513:53:056:40 9.014ve3DEURNE
178.6605GASTON FRÉDÉRIC42FRA3:53:053:53:306:41 8.9971ve1WATERMAEL-BOITSFORT
179.6649LALIEU YVES51BELTHE RUNNING NAT3:53:113:53:316:41 8.9933ve2UCCLE
180.6675MALCHAIRE RAPHAEL40BEL3:53:203:53:336:41 8.9972ve1LIEGE
181.6697NEESEN ERIC51BEL3:53:453:54:086:42 8.9734ve2WATERLOO
182.6521BISIAU MICKAEL40FRA3:54:413:54:446:43 8.9573ve1DENAIN
183.6592DURIEZ FREDERIC29FRA3:54:413:54:456:43 8.9556sen62141
184.6593DUTRIEUX RONALD47BEL3:54:563:55:206:44 8.9274ve1SAINT-SERVAIS
185.6565DELAIRE XAVIER25FRA3:55:303:55:376:44 8.9157senSEDAN
186.6671MAHOUDEAUX JEAN-DAMIEN24FRA3:55:323:55:376:44 8.9158senBAZEILLES
187.6728SCHELLEKENS DIRK50BELAVKA3:56:063:56:186:46 8.8935ve2SCHELLE
188.6782MOTTIAUX YVES57BEL3:57:253:57:486:48 8.8336ve2
189.6678MARS PIERRE34BEL3:57:423:57:586:48 8.8359senMOZET
190.6596EVRARD DIDIER50BELRUN PRO3:57:583:58:056:49 8.8237ve2BOIS DE VILLERS
191.6747VANDEPUTTE CÉDRIC41BEL3:57:473:58:106:49 8.8275ve1BRUXELLES
192.6580DEWEZ GEOFFROY36BELDÉRAPAGE COMIX3:57:463:58:116:49 8.8260senBRUXELLES
193.6515BÉRIOT YANN32BELJCCS3:58:273:58:496:50 8.7961senGEDINNE
194.6597FABIAN FARRUGIA42MLT3:58:533:58:596:50 8.7976ve1LUXEMBOURG
195.6715QUIX MARC51BEL3:59:083:59:306:51 8.7738ve2NOSSEGEM
196.6498SIMON YOAN36FRA3:59:554:00:126:52 8.7462sen
197.6661FLEROY STÉPHANIE33BELGAL3:59:544:00:136:52 8.749damFOREST
198.6704FPANFILI DANIELA44ITAENJAMBEE3:59:554:00:176:52 8.747ai11180
199.6503ACCARAIN PASCAL55BELCEPAL4:00:084:00:256:53 8.7439ve2BRUXELLES
200.6552CULOT LIONEL35BEL4:01:164:01:356:55 8.6963senBRUXELLES
201.6700NORMAND DANIEL54BELJCCS4:02:454:03:006:57 8.6440ve2RIENNE
202.6543CHARLIER BAUDOUIN64BELJ.E.T.4:03:584:04:146:59 8.605ve3TUBIZE
203.6589DUCULOT JEAN-MICHEL42BEL4:04:074:04:256:59 8.5977ve11350
204.6735FSOHET ALEXIA30BELRCB4:04:194:04:397:00 8.5810damUCCLE
205.6745FVAN DEN EEDE NOELLE45BEL4:04:484:05:087:01 8.578ai1FLEMALLE
206.6641KEUKELEIRE DICKY53BELGISTELSEJOGGING4:05:124:05:247:01 8.5641ve2BRUGGE
207.6707PEREZ NORIEGA ALEX41BEL4:05:154:05:367:02 8.5578ve1BRAINE L'ALLEUD
208.6558FDEBONI MALORIE31BELCSFMYSTERE4:07:024:07:027:04 8.5011damBOUSVAL
209.6601FRIPPIAT GAËTAN43BEL4:08:504:09:017:07 8.4379ve1NAMUR
210.6504ADLER JAN47DEU4:10:274:10:427:10 8.3880ve1RIXENSART
211.6683FMEIKLE SILVIA50DEU4:10:434:10:437:10 8.382ai2RIXENSART
212.6564DEKETELAERE THIBAULT43BEL4:13:084:13:097:14 8.3081ve1NOSSEGEM
213.6742FTILOUCHE DIANA39BEL4:13:094:13:097:14 8.3012damSCHAERBEEK
214.6772GRASSER PASCAL65FRA4:14:084:14:167:16 8.266ve3
215.6536CALDERS RUDY50BEL4:14:174:14:237:17 8.2642ve23200
216.6508ANDRÉ SÉBASTIEN35BELPROVINCE DE NAM4:14:304:14:447:17 8.2464senMOIGNELÉE
217.6557DASNOIS LUC43BEL4:14:434:14:577:18 8.2482ve1LLN
218.6573FDENIS CARINE38BEL4:15:274:15:337:19 8.2213dam6860
219.6642KINKIN JACQUES56BEL4:15:294:15:347:19 8.2243ve2FAUVILLERS
220.6511BAILLET JEREMY22FRAPSA AC4:16:414:17:017:21 8.1765senAIGLEMONT
221.6528FBOUHON SANDRINA47BEL4:16:504:17:067:21 8.179ai1COURRIÈRE
222.6631FHONNAY NATHALIE43BEL4:20:464:21:037:28 8.0410ai1GERPINNES
223.6670MAGHERMAN RUDY30BEL4:20:534:21:157:28 8.0466senROKSEM
224.6695NAUTS BENOIT42BELJCCS4:23:084:23:317:32 7.9783ve1RIENNE
225.6696NAUTS THIERRY33BELJCCS4:23:084:23:317:32 7.9767senGESVES
226.6743FTSHIBASU-KABEYA AURORE31BEL4:23:464:23:597:33 7.9614dam1050
227.6523BODY OLIVIER39BELCARACO'TRAILERS4:24:334:24:457:34 7.9368senDURNAL
228.6607FGAUTHIER SYLVIE30BELCARACO' TRAILER4:24:324:24:457:34 7.9315damGESVES
229.6613FGODEAU ARIANE45BELJ.E.T4:25:244:25:497:36 7.9011ai1REBECQ
230.6553DAL PIO JEAN-JACQUES58FRA//4:26:394:26:587:38 7.8744ve2BRAUMONT
231.6639JORDANT BENOIT53BELARCH4:27:244:27:497:40 7.8445ve2YVOIR
232.6702OSTYN PHILIPPE49BELJCCS4:28:564:29:127:42 7.8084ve1RIENNE
233.6788FPLETINCKX MARTINE61BELCÉPAL4:28:584:29:187:42 7.801ai3
234.6710PIRONNET ERIC51BEL4:31:584:32:187:47 7.7146ve2FLEMALLE
235.6529BRANCALEONI PATRICK64FRA4:35:544:36:047:54 7.617ve3MUSSON
236.6672MAILLARD DANIEL56FRA4:36:044:36:047:54 7.6147ve2BAR SUR AUBE
237.6741FTHEMELIN SYLVIE46BEL4:35:574:36:047:54 7.6112ai1MEIX DEVANT VIRTON
238.6638FJOLY ISABELLE50FRAFFAATHLETIC BELAIR4:36:534:37:017:55 7.583ai2PRIX LES MEZIERES
239.6800BOULEZ KRIS45BELRC GENT4:38:364:38:597:59 7.5385ve1
240.6668LOMBET PATRICE42BELCO PÉGASE4:38:504:39:067:59 7.5286ve1CINEY
241.6634IMANDT FRANCIS34BEL4:41:374:42:038:04 7.4569senWONDELGEM
242.6708PETITJEAN FABIAN40BEL4:42:564:43:208:06 7.4187ve1BRUXELLES
243.6540CAUWENBERGH DAMIEN32BEL4:42:574:43:228:06 7.4170senMETTET
244.6724SAUBLAINS ALAIN56BELCFS MYSTÈRE4:43:184:43:268:06 7.4148ve2BRUXELLES
245.6619GUIDEE CHRISTIAAN51BELTRIATLON DAMME4:46:254:46:448:12 7.3249ve2BRUGGE
246.6656LEHAIRE IVAN45FRAJ.E.T.J.E.T.4:54:464:55:118:27 7.1188ve1TUBIZE
247.6799FJACOBY LYNN24LUXRECUP RUNNERS4:54:534:55:128:27 7.1116dam
248.6595ENGLEBERT NICOLAS28BEL5:01:495:02:018:38 6.9571senLINCENT
249.6546COLLOT NATHAN26ISR5:01:505:02:018:38 6.9572senJODOIGNE
250.6657LELONG QUENTIN27BEL5:01:375:02:018:38 6.9573senMETTET
251.6764WARNAU YVES67BELRCBRCB6:11:256:12:0010:38 5.658ve3DROGENBOS
DNF6522FBODAUX STEPHANIE32BELMPSTUDIOdamDINANT
DNF6525BOODTS DAVY36BELsenTEMSE
DNF6542CHALON JACKY52BELMOUNTAIN-BIQUESve2BRAIBANT
DNF6550FCRÊPY MATHILDE25FRAdamIXELLES
DNF6567DELETTRE JEAN-CYRIL46FRAve1EPPEGEM
DNF6577DERIDDER RODNEY37BELJ.E.T.senENGHIEN
DNF6602FURNARI ROBERTO59ITAJETve2TUBIZE
DNF6632HUS ERIC50BELVMOLve2MOL
DNF6636JACOBS THOMAS21BELsenOTTIGNIES
DNF6645LABEAU BERTRAND43BELve1BRUXELLES
DNF6652LÉCHEVIN ERIC48BELve1THIEULAIN
DNF6659LENGELE SEBASTIEN40BELCEPALve1BRUXELLES
DNF6706PEIRSMAN YVES33BELsenHEVERLEE
DNF6718RENARD OLIVIER43BELve1VOSSEM
DNF6761VIGENT BENJAMIN26FRAsenIXELLES
DNF: abandon; DSQ: disqualifié; Vitesse en km/h
Seite: [1]